Regional Weather Roundup
Issued by NWS Cleveland, OH

Home | Current Version | Previous Version | Graphics & Text | Print | Product List | Glossary On
Versions: 1 2 3 4 5 6 7 8 9 10 11 12 13 14 15 16 17 18 19 20 21 22 23 24 25 26 27 28 29 30 31 32 33 34 35 36 37 38 39 40 41 42 43 44 45 46 47 48 49 50
000
ASUS41 KCLE 290510
RWRCLE
OHIO REGIONAL WEATHER ROUNDUP
NATIONAL WEATHER SERVICE CLEVELAND, OH
100 AM EDT SUN MAY 29 2016

NOTE: "FAIR" INDICATES FEW OR NO CLOUDS BELOW 12,000 FEET WITH NO
SIGNIFICANT WEATHER AND/OR OBSTRUCTIONS TO VISIBILITY.

OHZ001>008-015>018-024>027-034-035-043-044-290600-
   NORTHWEST OHIO

CITY           SKY/WX    TMP DP  RH WIND       PRES   REMARKS
DEFIANCE       PTCLDY    70  63  78 S6        30.05R
FINDLAY        CLEAR     68  60  75 SE7       30.06S
TOLEDO EXPRESS CLEAR     68  62  81 S6        30.05R
TOLEDO EXEC    CLEAR     68  60  75 S6        30.06S
LIMA           CLEAR     67  62  84 S7        30.07S
$$

OHZ009>014-019>023-028>033-038-089-290600-
   NORTHEAST OHIO

CITY           SKY/WX    TMP DP  RH WIND       PRES   REMARKS
CLE-HOPKINS    PTCLDY    70  63  78 S8        30.10S
CLE-LAKEFRONT  PTCLDY    74  63  68 S8        30.06S
CUY CO. ARPT   NOT AVBL
LORAIN-ELYRIA  PTCLDY    69  65  86 S6        30.09R
ASHTABULA      PTCLDY    68  66  93 CALM      30.11S
AKRON-CANTON   CLOUDY    70  62  76 SE6       30.11F
WOOSTER        PTCLDY    66  63  90 SE3       30.11F
MANSFIELD      PTCLDY    67  65  93 S5        30.11R
YOUNGSTOWN     PTCLDY    66  63  90 CALM      30.11F
$$

OHZ042-051>053-060>062-070>072-077>081-290600-
  SOUTHWEST OHIO

CITY           SKY/WX    TMP DP  RH WIND       PRES   REMARKS
CINC-COVINGTON MOCLDY    67  62  84 S6        30.09S
CINC-LUNKEN    CLOUDY    64  64 100 CALM      30.09S
HAMILTON       CLOUDY    67  63  87 CALM      30.09S
DAYTON         CLOUDY    72  63  73 S8        30.10R
WRIGHT-PAT AFB NOT AVBL
DAYTON GENERAL CLOUDY    67  60  78 S5        30.08S
WILMINGTON     PTCLDY    68  63  84 CALM      30.11R
$$

OHZ036-037-039>041-045>050-054>059-063>069-073>076-082>088-290600-
  CENTRAL AND SOUTHEAST OHIO

CITY           SKY/WX    TMP DP  RH WIND       PRES   REMARKS
COLUMBUS       MOCLDY    68  66  93 CALM      30.09R
OSU AIRPORT    PTCLDY    68  66  93 CALM      30.10R
BOLTON FIELD   PTCLDY    67  66  97 CALM      30.10R
RICKENBACK AFB PTCLDY    66  66  99 CALM      30.09R FOG
NEWARK         FOG       67  65  93 CALM      30.10S VSB 3/4
MARION         PTCLDY    67  65  93 S3        30.10R FOG
LANCASTER      CLOUDY    68  66  93 CALM      30.10S FOG
ZANESVILLE     PTCLDY    70  65  84 CALM      30.11S
NEW PHILLY     CLOUDY    69  64  84 CALM      30.11F
$$




USA.gov is the U.S. government's official web portal to all federal, state and local government web resources and services.